Scottsbluff, NE

1:23 PM MDT on July 28, 2017 (GMT -0600)
Heilig

Weather History for KBFF - August, 2014

Change the Weather History Date:

Wednesday, August 13, 2014

  Actual Average Record
Temperature  
Mean Temperature 79 °F 73 °F  
Max Temperature 100 °F 88 °F 104 °F (2007)
Min Temperature 58 °F 57 °F 44 °F (1966)
Degree Days  
Heating Degree Days 0 0  
Month to date heating degree days 0 0  
Since 1 June heating degree days 60 66  
Since 1 July heating degree days 7 6  
Cooling Degree Days 14 8  
Month to date cooling degree days 118 113  
Year to date cooling degree days 522 549  
Since 1 June cooling degree days 495 526  
Growing Degree Days 28 (Base 50)    
Moisture  
Dew Point 57 °F    
Average Humidity 56    
Maximum Humidity 93    
Minimum Humidity 18    
Precipitation  
Precipitation 0.00 in 0.05 in 0.98 in (1908)
Month to date precipitation 0.45 0.63  
Year to date precipitation 10.83 11.63  
Snow  
Snow 0.00 in 0.00 in - ()
Month to date snowfall 0.0 0.0  
Since 1 July snowfall 0.0 0.0  
Snow Depth 0.00 in    
Sea Level Pressure  
Sea Level Pressure 29.93 in    
Wind  
Wind Speed 9 mph (ESE)    
Max Wind Speed 18 mph    
Max Gust Speed 22 mph    
Visibility 10 miles    
Events      
T = Trace of Precipitation, MM = Missing Value Source: NWS Daily Summary

Daily Weather History Graph

Daily Weather History Graph

Search for Another Location

Airport or City:

Trip Planner

Search our weather history database for the weather conditions in past years. The results will help you decide how hot, cold, wet, or windy it might be!

Date:

Astronomy

Aug. 13, 2014 Rise Set
Actual Time 6:00 AM MDT 7:57 PM MDT
Civil Twilight 5:30 AM MDT 8:27 PM MDT
Nautical Twilight 4:53 AM MDT 9:04 PM MDT
Astronomical Twilight 4:13 AM MDT 9:43 PM MDT
Moon 9:39 PM MDT (8/13) 9:35 AM MDT (8/13)
Length of Visible Light 14h 57m
Length of Day
13h 56m
Waning Gibbous, 87% of the Moon is Illuminated
Aug 13
Waning Gibbous
Aug 17
Last Quarter
Aug 25
New
Sep 2
First Quarter
Sep 8
Full

Hourly Weather History & Observations

Time (MDT) Temp. Heat Index Dew Point Humidity Pressure Visibility Wind Dir Wind Speed Gust Speed Precip Events Conditions
12:53 AM 64.9 °F - 59.0 °F 81% 29.98 in 10.0 mi ESE 11.5 mph - N/A   Clear
1:53 AM 64.0 °F - 59.0 °F 84% 29.97 in 10.0 mi ESE 11.5 mph - N/A   Clear
2:53 AM 63.0 °F - 57.9 °F 84% 29.96 in 10.0 mi ESE 10.4 mph - N/A   Clear
3:53 AM 61.0 °F - 57.9 °F 90% 29.96 in 10.0 mi East 9.2 mph - N/A   Clear
4:53 AM 59.0 °F - 57.0 °F 93% 29.97 in 10.0 mi East 5.8 mph - N/A   Clear
6:53 AM 59.0 °F - 57.9 °F 96% 29.99 in 7.0 mi East 6.9 mph - N/A   Clear
7:53 AM 64.0 °F - 59.0 °F 84% 29.99 in 8.0 mi ESE 10.4 mph - N/A   Clear
8:53 AM 68.0 °F - 60.8 °F 78% 30.11 in 10.0 mi ESE 8.1 mph - N/A   Clear
9:53 AM 73.9 °F - 62.1 °F 66% 29.97 in 10.0 mi ESE 5.8 mph - N/A   Clear
10:53 AM 80.1 °F 81.5 °F 63.0 °F 56% 29.95 in 10.0 mi East 6.9 mph - N/A   Clear
11:53 AM 86.0 °F 86.3 °F 62.1 °F 44% 29.93 in 10.0 mi Variable 4.6 mph - N/A   Clear
12:53 PM 90.0 °F 90.3 °F 62.1 °F 39% 29.90 in 10.0 mi East 10.4 mph - N/A   Clear
1:53 PM 95.0 °F 95.2 °F 60.8 °F 32% 30.04 in 10.0 mi East 8.1 mph - N/A   Clear
2:53 PM 99.0 °F - 48.0 °F 18% 29.86 in 10.0 mi South 16.1 mph - N/A   Clear
3:53 PM 93.0 °F - 48.9 °F 22% 29.85 in 10.0 mi South 8.1 mph - N/A   Clear
4:53 PM 97.0 °F - 46.9 °F 18% 29.84 in 10.0 mi South 12.7 mph - N/A   Clear
5:53 PM 91.9 °F - 46.9 °F 21% 29.84 in 10.0 mi SSE 9.2 mph - N/A   Clear
6:53 PM 88.0 °F 86.5 °F 55.9 °F 34% 29.85 in 10.0 mi SE 9.2 mph - N/A   Clear
7:53 PM 84.0 °F - 51.1 °F 32% 29.86 in 10.0 mi SE 10.4 mph - N/A   Clear
8:53 PM 78.1 °F - 55.0 °F 45% 29.88 in 10.0 mi ESE 9.2 mph - N/A   Clear
10:53 PM 73.9 °F - 59.0 °F 59% 29.88 in 10.0 mi East 10.4 mph - N/A   Clear
11:53 PM 73.0 °F - 59.0 °F 61% 29.88 in 10.0 mi East 5.8 mph - N/A   Clear